Terminal Aerodrome Forecast
Issued by NWS Mt. Holly, NJ

Home | Current Version | Previous Version | Text Only | Print | Product List | Glossary On
Versions: 1 2 3 4 5 6 7 8 9 10 11 12 13 14 15 16 17 18 19 20 21 22 23 24
000
FTUS41 KPHI 251433 AAA
TAFPHL
TAF AMD
KPHL 251433Z 2515/2618 07015G27KT 2SM RA OVC006
      TEMPO 2519/2522 1 1/2SM +RA OVC004
     FM252200 06013G20KT 3SM RA OVC008
     FM260200 06013KT 5SM -RA OVC006
     FM260500 03010KT 3SM BR OVC004=

USA.gov is the U.S. government's official web portal to all federal, state and local government web resources and services.